Location: Poughquag
(41.6090°N, 73.6820°W)
Time: 20:25:58
(UTC-04:00)

POLYITAN 1 - Pass Details

Date: 14 September 2024
Orbit: 536 x 557 km, 98.1° (Epoch: 04 October)

Event Time Altitude Azimuth Distance (km) Brightness Sun altitude
Rises 03:58:35 0° 27° (NNE) 2,718 ? -28.1°
Reaches altitude 10° 04:01:06 10° 43° (NE) 1,814 ? -27.7°
Maximum altitude 04:04:11 22° 95° (E) 1,211 ? -27.3°
Enters shadow 04:05:38 18° 126° (SE) 1,361 ? -27.0°
